Location: Bouchavesnes-Bergen
(49.9859°N, 2.9203°E)
Time: 01:10:42
(UTC+00:00)

Envisat - Pass Details

Date: 10 February 2023
Orbit: 763 x 765 km, 98.2° (Epoch: 28 March)

Event Time Altitude Azimuth Distance (km) Brightness Sun altitude
Rises 04:39:15 0° 10° (N) 3,246 6.5 -24.4°
Reaches altitude 10° 04:41:37 10° 5° (N) 2,315 5.6 -24.0°
Enters shadow 04:45:51 46° 317° (NW) 1,019 3.3 -23.3°
